Theta_e
306 306 305 304 302 302 302 302 301 300 299 298 296 294 293 293 292 291 291 291 290 290 290 290 290 289 289 289 289 288 288 288 288 290 289 289 289 289 289 289 290 291 293
305 304 303 302 302 301 301 301 299 298 296 294 293 292 291 291 291 290 290 290 290 289 289 288 288 288 288 287 287 287 287 287 286 287 287 288 287 287 288 288 289 289 291
305 303 302 301 301 301 300 298 296 294 293 292 291 291 290 290 290 289 289 288 288 287 287 287 286 286 285 285 285 284 284 284 284 284 285 285 285 285 285 286 286 287 288
303 302 301 301 299 298 297 294 293 292 291 290 290 290 289 289 288 288 287 287 287 286 286 285 284 284 283 283 282 282 282 282 282 282 283 283 283 284 283 283 285 284 285
301 300 300 299 298 295 293 292 291 290 290 290 289 289 288 288 287 287 286 286 285 285 284 283 283 282 281 281 281 281 281 281 282 282 282 282 282 283 283 282 283 283 284
300 299 298 297 295 293 291 290 290 290 289 289 288 288 288 287 286 286 286 285 284 283 282 282 281 281 280 280 280 280 280 280 280 280 281 281 281 282 282 282 282 283 283
299 298 297 294 293 291 290 290 290 289 289 288 287 287 286 285 286 285 285 284 282 282 281 281 280 280 279 279 279 279 278 278 278 278 279 280 280 281 282 282 282 282 283
298 297 294 293 291 290 290 290 289 288 287 287 286 286 285 285 285 285 283 282 281 281 281 280 280 279 279 278 278 278 277 277 276 277 278 278 279 282 282 281 281 281 283
297 294 293 292 291 290 289 289 288 287 286 285 285 285 285 285 284 283 281 281 281 281 280 280 279 278 278 277 276 275 275 275 275 276 276 277 277 278 278 278 279 281 281
295 293 292 291 290 289 288 287 287 286 285 285 284 284 285 284 283 281 280 280 280 280 279 278 278 277 276 275 275 274 274 274 274 275 276 276 277 277 277 277 278 278 279
293 292 291 289 288 288 287 287 286 285 284 284 284 284 283 282 281 280 280 279 278 278 277 277 276 275 274 273 273 273 273 273 274 274 275 276 276 276 276 277 277 276 276
292 291 290 289 288 287 286 286 285 284 284 283 283 283 282 281 280 279 279 278 277 276 276 276 275 274 273 273 272 272 272 272 273 273 273 274 274 274 275 275 275 275 275
291 290 290 289 287 286 286 285 285 284 283 283 283 282 282 281 279 278 278 277 276 276 276 275 274 273 273 273 272 272 272 272 271 271 272 272 273 273 274 274 274 274 275
291 290 289 288 287 286 285 284 283 282 282 282 282 282 281 279 278 278 277 277 276 276 274 274 273 272 272 272 272 271 271 270 270 271 271 271 272 272 272 273 273 273 274
290 289 288 287 286 285 284 283 282 282 282 281 281 280 279 278 277 276 275 274 274 273 273 272 272 272 271 271 271 270 270 270 270 270 270 270 271 271 271 272 272 272 272
290 288 287 286 285 284 283 282 282 282 281 280 279 278 277 276 276 275 273 272 273 272 272 272 271 271 270 270 269 270 270 269 269 269 269 269 269 270 270 271 271 271 271
289 288 287 285 284 283 282 281 281 280 280 279 278 277 276 276 275 274 273 273 272 272 272 271 271 270 269 269 269 269 269 268 268 268 268 268 268 269 269 270 270 270 270
288 287 286 284 283 282 281 281 281 281 280 279 277 276 276 275 275 274 273 273 272 272 271 271 270 270 269 269 269 268 268 268 267 267 267 267 268 268 268 269 269 268 268
288 286 285 284 282 281 281 281 281 280 279 278 277 276 275 275 274 273 273 272 271 271 270 270 270 269 269 268 268 268 267 267 266 266 266 266 267 267 268 267 267 267 267
287 285 284 282 281 281 280 280 280 279 278 276 276 275 275 275 274 273 272 271 271 270 270 270 269 269 268 268 268 267 267 267 266 266 266 266 266 266 266 266 266 266 267
286 285 283 282 281 280 280 280 279 278 276 275 275 274 274 273 272 272 271 270 270 269 269 269 269 269 268 268 267 267 266 266 265 265 265 266 265 266 266 266 266 266 266
285 283 282 281 280 280 280 280 278 277 275 275 274 274 273 272 272 271 270 270 269 269 268 268 269 268 268 267 267 266 266 266 265 265 265 265 265 265 265 266 266 266 266
284 282 281 280 280 280 280 278 277 275 274 274 273 273 272 272 271 270 270 269 269 268 268 268 268 268 268 267 267 266 266 265 265 265 265 265 265 265 265 265 265 265 265
282 281 280 279 279 279 278 277 275 274 274 273 273 272 272 271 270 269 269 268 268 268 268 268 268 268 267 267 267 266 266 266 265 265 264 264 264 264 265 265 265 265 265
281 280 279 279 279 278 277 275 274 274 273 273 272 272 271 270 269 269 268 268 267 267 268 267 267 267 267 267 266 266 266 266 265 264 264 263 263 264 264 265 265 265 265
279 279 279 279 278 277 275 274 273 273 273 272 272 271 270 269 268 268 268 267 267 267 267 267 267 267 267 266 266 266 266 266 266 265 263 263 263 263 264 265 265 265 265
Wind_Speed
2 1 2 2 2 4 7 11 15 18 20 20 20 20 20 20 20 20 21 21 22 22 23 24 25 25 26 26 26 26 26 26 37 53 47 49 50 49 48 44 43 41 39
1 1 1 1 4 8 12 16 18 18 19 18 17 17 18 18 19 19 19 20 21 22 23 24 26 26 26 27 28 28 28 27 32 46 48 50 50 49 49 47 43 39 36
4 2 1 5 9 13 16 16 16 15 15 15 16 17 17 17 17 19 20 22 23 25 26 27 28 30 30 31 30 30 29 30 31 36 48 46 49 46 47 47 47 44 39
3 3 4 8 12 13 14 13 13 13 14 15 16 16 17 19 20 21 23 24 24 24 25 26 28 29 30 31 30 29 29 31 31 34 39 44 42 43 41 43 46 44 47
6 4 7 10 12 12 12 12 12 12 13 14 15 16 18 20 22 22 22 24 25 25 26 26 26 26 27 28 28 28 29 33 35 37 39 42 40 41 38 43 41 42 47
5 7 9 11 11 10 10 11 12 14 14 14 15 17 19 20 20 22 25 25 25 26 27 27 28 30 31 31 32 29 29 32 35 37 40 40 44 38 41 41 42 41 43
8 9 10 10 11 11 11 12 13 13 15 15 16 17 18 19 23 24 25 24 23 24 27 30 30 31 33 34 36 37 36 35 34 35 38 40 44 42 43 46 43 41 45
10 10 10 11 11 12 12 13 14 14 14 15 16 17 18 21 23 24 23 22 23 25 28 30 32 35 36 35 40 44 44 42 41 37 34 38 40 43 36 41 49 49 46
11 11 11 12 13 13 13 13 14 15 16 16 17 18 20 21 22 23 23 23 25 26 30 32 34 38 37 33 40 45 48 47 44 37 36 36 38 39 40 40 41 34 37
12 12 13 13 13 13 13 14 15 16 16 17 18 19 20 21 21 21 23 25 28 31 34 34 37 38 31 35 36 39 45 46 45 48 45 43 39 34 27 27 29 32 34
13 13 13 14 14 14 15 16 17 17 17 17 18 19 20 20 20 21 23 26 29 32 34 36 40 32 38 37 33 36 33 37 40 40 40 38 36 32 31 28 27 25 25
12 13 14 14 15 16 17 17 18 17 17 17 16 17 18 19 21 22 24 25 29 32 34 39 41 43 42 40 37 33 30 32 34 34 35 35 34 33 30 26 23 19 18
14 14 15 17 17 17 17 18 18 18 18 17 17 17 18 19 20 22 25 28 31 31 36 40 40 40 40 39 35 33 31 31 32 33 33 32 30 29 27 24 20 17 15
16 16 17 18 17 18 18 18 17 16 17 18 18 19 19 19 21 24 28 31 34 36 39 39 37 37 35 35 36 34 32 31 30 31 31 30 29 27 25 23 22 21 21
19 19 20 19 19 18 17 17 16 16 17 18 18 19 20 20 22 26 27 28 28 32 36 36 37 37 37 37 37 36 34 33 31 30 30 30 29 27 25 24 23 23 22
22 22 21 20 18 17 16 16 15 16 17 17 17 18 18 21 24 26 24 23 31 33 34 36 36 35 36 37 37 38 36 33 31 29 28 28 28 27 27 25 23 23 23
23 23 21 20 19 18 16 14 14 14 14 15 17 17 19 22 25 27 29 32 31 31 31 31 33 34 35 35 36 35 35 32 30 28 27 27 27 27 27 26 25 23 22
23 22 21 20 19 18 16 14 13 13 14 15 16 18 20 23 26 28 30 32 31 28 29 30 32 33 33 34 34 34 33 31 29 28 27 27 27 27 27 26 24 22 20
23 21 20 19 18 17 15 14 14 13 14 14 15 17 20 23 24 26 28 29 31 31 30 30 30 32 33 33 33 32 30 30 28 27 27 26 26 26 26 24 22 19 17
22 21 20 18 17 15 14 13 13 14 14 14 16 19 21 25 26 27 27 28 28 28 28 29 30 30 31 33 32 31 30 29 28 26 25 25 25 25 24 23 20 18 16
22 21 19 17 16 14 13 13 14 15 15 15 17 20 24 27 28 28 28 27 27 27 28 28 30 30 30 31 31 30 29 28 26 25 24 23 24 24 22 20 18 15 13
22 20 18 16 14 12 12 14 15 15 16 17 18 20 24 26 28 28 28 27 26 26 27 29 30 30 30 30 30 29 29 28 26 25 23 22 22 21 20 18 15 13 11
21 18 16 14 13 12 14 15 15 15 16 18 21 23 24 26 27 28 28 27 27 26 26 27 29 28 28 28 27 27 28 27 25 23 23 21 20 20 19 16 14 11 9
18 16 15 13 12 13 14 15 14 15 17 19 22 24 26 28 28 28 28 28 28 28 27 28 28 28 28 27 26 25 25 24 23 21 19 19 19 17 16 14 12 9 8
16 15 14 12 12 13 14 13 14 16 18 21 24 26 28 29 30 30 30 30 31 32 31 30 28 27 27 26 26 25 23 22 21 19 17 17 17 16 14 12 10 8 6
14 13 12 13 13 14 14 13 14 17 20 22 25 27 30 31 30 31 31 31 33 33 33 32 29 26 26 26 25 24 23 21 19 17 17 17 15 14 12 10 9 7 6
Wind_Direction
119 97 40 11 357 351 335 329 330 328 328 329 330 331 332 334 338 339 338 339 339 339 337 335 333 332 331 328 324 320 314 306 298 303 305 309 310 310 311 311 309 308 304
144 23 7 322 330 330 327 327 327 326 327 330 333 335 336 337 339 340 341 341 342 341 341 339 337 335 334 331 330 327 323 319 313 308 312 315 316 317 315 314 313 308 305
202 219 311 327 324 321 320 323 325 329 331 335 336 336 338 340 341 344 347 348 348 346 344 343 342 342 342 341 339 335 331 327 322 314 312 316 317 319 318 316 315 312 309
217 228 291 310 313 316 317 322 324 329 332 334 336 338 340 344 347 349 349 346 347 348 348 348 349 347 344 343 340 336 331 327 322 315 311 314 316 318 318 319 315 312 314
212 256 298 305 309 312 316 320 324 331 334 336 340 341 343 344 344 345 346 349 350 352 351 350 348 345 345 342 338 337 333 328 322 316 312 310 311 313 316 321 313 314 314
239 280 290 300 302 310 318 325 331 331 332 337 339 341 342 341 342 347 350 350 350 350 350 351 351 352 349 345 344 340 333 327 324 319 312 308 306 306 308 313 314 308 310
260 281 294 299 311 317 320 324 324 326 329 334 335 336 338 343 347 346 346 346 345 349 352 350 348 345 343 339 336 332 330 328 325 320 312 310 308 311 308 310 309 303 296
272 288 295 305 311 311 315 318 319 319 325 328 330 335 340 345 344 339 338 341 347 348 345 344 340 340 339 338 330 328 327 327 327 320 309 306 307 306 299 298 298 297 296
285 290 297 302 301 302 305 311 316 323 328 325 331 337 341 338 335 335 337 341 340 338 338 338 335 336 337 336 328 328 327 326 325 320 313 307 303 298 298 299 296 296 289
280 284 291 295 296 301 309 315 321 321 324 328 330 334 333 332 333 336 335 336 334 334 334 334 336 335 334 332 330 325 325 328 324 325 324 322 322 322 316 304 302 297 291
277 287 294 295 300 309 314 317 318 321 322 326 328 328 329 329 329 330 331 334 335 334 334 333 334 335 330 331 330 327 327 319 322 325 327 329 330 330 326 319 312 306 294
277 288 292 302 305 307 311 316 316 315 319 321 323 325 326 327 326 327 330 333 334 334 332 331 331 329 330 331 331 330 327 326 329 334 336 337 335 331 328 327 326 318 301
280 288 296 298 300 306 309 309 313 316 317 318 322 324 323 323 324 327 330 332 332 332 329 328 328 328 329 329 333 335 335 338 340 340 341 339 337 335 334 332 330 324 319
282 289 291 292 297 299 305 310 312 314 315 317 319 321 325 326 326 326 331 332 333 330 325 329 329 327 327 331 336 341 344 345 344 341 339 339 337 338 339 339 336 334 329
281 286 286 290 294 301 305 306 308 309 312 316 319 324 327 328 330 334 334 335 328 325 325 328 329 331 335 338 341 343 345 343 343 342 340 340 338 335 334 334 330 327 326
278 282 286 291 296 300 301 303 305 309 312 314 316 320 325 327 331 332 333 327 330 329 330 328 330 334 337 340 342 341 341 340 340 340 339 338 336 334 332 330 327 325 324
279 282 287 292 295 297 298 300 304 305 306 311 312 315 321 327 331 331 327 328 329 327 327 329 331 335 338 340 340 338 336 337 336 336 337 336 335 334 332 330 328 326 324
277 282 287 290 294 297 298 297 296 296 299 302 306 312 319 324 329 330 327 326 325 327 330 333 333 335 338 337 336 334 333 334 334 334 332 333 334 332 330 328 327 324 322
277 280 284 289 292 292 293 293 294 296 299 297 299 306 312 319 326 326 326 326 328 330 332 333 334 334 334 334 334 332 332 333 332 330 331 331 331 329 328 327 324 322 319
275 278 282 285 286 285 285 286 289 294 294 294 301 307 314 320 322 326 330 329 326 326 329 331 333 333 332 331 331 330 330 331 331 329 328 331 332 331 328 326 325 323 323
272 275 278 279 277 276 279 284 291 291 290 296 304 313 318 321 325 328 328 325 323 326 328 330 332 331 329 327 327 327 327 329 330 328 326 328 332 332 330 326 324 325 325
268 270 270 268 267 269 275 280 283 283 288 297 305 312 316 319 320 321 320 320 322 325 327 327 327 327 326 325 325 325 325 327 327 326 325 325 329 331 329 326 325 327 329
265 265 262 258 254 260 268 274 274 279 290 300 309 313 314 315 316 316 317 319 320 322 324 323 321 321 320 321 322 323 322 323 323 323 322 322 326 327 326 324 324 327 329
263 258 251 246 247 260 266 267 272 284 297 305 308 311 314 315 315 315 317 317 318 318 319 317 316 317 318 319 320 320 319 318 318 319 318 320 322 322 321 319 319 321 323
251 246 240 239 253 258 263 267 278 291 300 307 310 312 314 314 315 317 318 318 316 314 313 309 309 312 314 316 317 317 317 315 314 312 308 312 318 317 313 312 311 311 310
241 234 235 247 251 257 260 270 284 296 303 306 310 313 313 314 318 320 321 320 316 313 309 305 305 306 308 311 313 314 314 312 310 307 309 304 304 315 305 302 300 297 290